Terminal Aerodrome Forecast
Issued by NWS

Home | Current Version | Previous Version | Text Only | Print | Product List | Glossary On
Versions: 1 2 3 4 5 6 7 8 9 10 11 12 13 14 15 16 17 18 19 20 21 22 23 24 25 26 27 28 29 30 31 32 33 34 35 36 37 38 39 40 41 42 43 44 45 46 47 48 49 50
000
FTUS45 KGJT 271120
TAFTEX
TAF
KTEX 271120Z 2712/2812 00000KT P6SM VCFG OVC010
      TEMPO 2712/2716 SCT010 BKN025
     FM271600 28005KT P6SM SCT025 BKN070
     FM271900 05006KT P6SM VCSH SCT030 BKN060
     FM280400 14003KT P6SM VCSH BKN030 OVC050=

USA.gov is the U.S. government's official web portal to all federal, state and local government web resources and services.